Powrót do katalogu

IRIDIUM 179

AktywnyŁącznośćPO
NORAD 56730·PAYLOAD·🇺🇸 United States

Wystrzelony May 20, 2023 z Vandenberg Space Force Base

Loading…

Następne Przeloty (najbliższe 24 godziny)

TLE

ŚwieżeSource: CelesTrak SupGP

Epoka: Sep 14, 2026, 13:44 UTC

1 56730C 23068W   26257.57256944 -.00010610  00000+0 -14052-2 0  2574
2 56730  86.6840 357.2725 0002438  93.0428  22.1617 14.80053382    13

Śledź IRIDIUM 179 w czasie rzeczywistym z AllMySat

Download on the App Store